KB7STN Weather Reports


Display with metric or nautical units.
time (UTC)temp
F
wind
direction
speed
MPH
gust
MPH
rain 1hr
in
rain 24hr
in
rain mn
in
humidity
%
barometer
mb
20260903035519 74 257 0.0 2.0 0.00 0.00 0.00 15 1014.9
20260903035019 74 257 0.0 3.0 0.00 0.00 0.00 15 1014.9
20260903034519 74 257 0.0 3.0 0.00 0.00 0.00 15 1014.9
20260903034019 74 257 0.0 4.0 0.00 0.00 0.00 15 1014.9
20260903033519 75 257 0.0 5.0 0.00 0.00 0.00 14 1014.8
20260903033019 75 257 0.0 5.0 0.00 0.00 0.00 15 1014.9
20260903032519 75 257 0.0 3.0 0.00 0.00 0.00 14 1014.9
20260903032019 75 258 0.0 0.0 0.00 0.00 0.00 14 1014.8
20260903031519 75 258 0.0 1.0 0.00 0.00 0.00 14 1014.9
20260903031019 75 258 1.0 3.0 0.00 0.00 0.00 14 1014.8
20260903030519 75 258 1.0 5.0 0.00 0.00 0.00 14 1014.8
20260903030019 75 258 1.0 4.0 0.00 0.00 0.00 14 1014.9
20260903025519 75 258 0.0 4.0 0.00 0.00 0.00 14 1014.8
20260903025019 75 258 0.0 2.0 0.00 0.00 0.00 14 1014.9
20260903024519 75 258 0.0 4.0 0.00 0.00 0.00 14 1014.7
20260903024019 75 258 0.0 2.0 0.00 0.00 0.00 14 1014.6
20260903023519 76 258 0.0 0.0 0.00 0.00 0.00 14 1014.6
20260903023019 76 258 0.0 2.0 0.00 0.00 0.00 14 1014.5
20260903022519 76 258 0.0 0.0 0.00 0.00 0.00 13 1014.5
20260903022019 76 258 0.0 2.0 0.00 0.00 0.00 13 1014.5
20260903021519 76 258 0.0 0.0 0.00 0.00 0.00 13 1014.4
20260903021019 76 258 0.0 0.0 0.00 0.00 0.00 13 1014.4
20260903020519 77 258 1.0 4.0 0.00 0.00 0.00 13 1014.4
20260903020019 77 259 1.0 5.0 0.00 0.00 0.00 13 1014.5
20260903015519 77 258 1.0 5.0 0.00 0.00 0.00 12 1014.5
20260903015019 77 259 0.0 0.0 0.00 0.00 0.00 13 1014.6
20260903014519 77 259 0.0 1.0 0.00 0.00 0.00 13 1014.6
20260903014019 77 259 0.0 2.0 0.00 0.00 0.00 13 1014.6
20260903013519 77 259 1.0 4.0 0.00 0.00 0.00 13 1014.6
20260903013019 77 259 1.0 4.0 0.00 0.00 0.00 14 1014.6
20260903012519 77 259 0.0 2.0 0.00 0.00 0.00 15 1014.7
20260903012019 77 259 0.0 4.0 0.00 0.00 0.00 15 1014.7
20260903011519 77 259 0.0 2.0 0.00 0.00 0.00 14 1014.7
20260903011019 78 259 0.0 0.0 0.00 0.00 0.00 15 1014.8
20260903010519 78 259 0.0 0.0 0.00 0.00 0.00 14 1014.9
20260903010019 78 259 1.0 5.0 0.00 0.00 0.00 14 1015.0
20260903005519 78 259 1.0 6.0 0.00 0.00 0.00 13 1014.9
20260903005019 78 258 1.0 5.0 0.00 0.00 0.00 14 1014.9
20260903004519 79 262 1.0 6.0 0.00 0.00 0.00 14 1014.9
20260903004019 79 264 1.0 5.0 0.00 0.00 0.00 15 1015.1
20260903003519 79 264 1.0 5.0 0.00 0.00 0.00 15 1015.2
20260903003019 79 264 0.0 5.0 0.00 0.00 0.00 14 1014.9
20260903002519 79 264 0.0 4.0 0.00 0.00 0.00 15 1015.1
20260903002019 79 264 1.0 5.0 0.00 0.00 0.00 15 1015.2
20260903001519 79 264 1.0 3.0 0.00 0.00 0.00 14 1015.2
20260903001019 79 265 2.0 8.0 0.00 0.00 0.00 14 1015.2
20260903000519 79 261 2.0 7.0 0.00 0.00 0.00 15 1015.3
20260903000019 79 261 2.0 7.0 0.00 0.00 0.00 14 1015.3
20260902235519 79 263 1.0 10.0 0.00 0.00 0.00 14 1015.3
20260902235019 79 296 1.0 4.0 0.00 0.00 0.00 14 1015.1
20260902234519 80 296 2.0 9.0 0.00 0.00 0.00 15 1015.1
20260902234019 80 251 2.0 7.0 0.00 0.00 0.00 15 1015.2
20260902233519 80 247 1.0 5.0 0.00 0.00 0.00 15 1015.1
20260902233019 80 238 2.0 7.0 0.00 0.00 0.00 15 1015.2
20260902232519 80 246 3.0 9.0 0.00 0.00 0.00 15 1015.3
20260902232019 81 264 3.0 10.0 0.00 0.00 0.00 15 1015.3
20260902231519 81 270 2.0 11.0 0.00 0.00 0.00 15 1015.4
20260902231019 81 265 1.0 5.0 0.00 0.00 0.00 14 1015.5
20260902230519 81 269 1.0 8.0 0.00 0.00 0.00 14 1015.5
20260902230019 81 272 2.0 4.0 0.00 0.00 0.00 16 1015.6
20260902225519 81 272 2.0 7.0 0.00 0.00 0.00 16 1015.6
20260902225019 81 254 2.0 7.0 0.00 0.00 0.00 16 1015.7
20260902224519 81 245 2.0 5.0 0.00 0.00 0.00 16 1015.6
20260902224019 81 254 2.0 3.0 0.00 0.00 0.00 16 1015.5
20260902223519 81 254 3.0 7.0 0.00 0.00 0.00 16 1015.4
20260902223019 81 262 3.0 9.0 0.00 0.00 0.00 16 1015.5
20260902222519 82 286 2.0 7.0 0.00 0.00 0.00 16 1015.5
20260902222019 82 283 2.0 7.0 0.00 0.00 0.00 16 1015.6
20260902221519 82 286 2.0 6.0 0.00 0.00 0.00 16 1015.6
20260902221019 81 286 2.0 6.0 0.00 0.00 0.00 18 1015.5
20260902220519 80 287 2.0 12.0 0.00 0.00 0.00 17 1015.8
20260902220019 80 282 2.0 7.0 0.00 0.00 0.00 18 1015.9
20260902215519 80 279 3.0 5.0 0.00 0.00 0.00 18 1015.8
20260902215019 80 279 4.0 14.0 0.00 0.00 0.00 18 1015.9
20260902214519 80 277 3.0 10.0 0.00 0.00 0.00 17 1016.0
20260902214019 81 243 3.0 8.0 0.00 0.00 0.00 19 1015.9
20260902213519 81 259 4.0 14.0 0.00 0.00 0.00 18 1016.0
20260902213019 81 240 3.0 11.0 0.00 0.00 0.00 20 1016.0
20260902212519 82 274 3.0 8.0 0.00 0.00 0.00 19 1016.1
20260902212019 82 285 3.0 11.0 0.00 0.00 0.00 20 1015.9
20260902211520 81 229 2.0 8.0 0.00 0.00 0.00 18 1016.0
20260902211019 81 273 2.0 6.0 0.00 0.00 0.00 19 1016.0
20260902210520 81 279 4.0 14.0 0.00 0.00 0.00 20 1016.0
20260902210019 81 279 4.0 16.0 0.00 0.00 0.00 18 1016.1
20260902205519 81 260 2.0 9.0 0.00 0.00 0.00 18 1016.3
20260902205019 81 311 2.0 5.0 0.00 0.00 0.00 22 1016.2
20260902204519 80 210 3.0 8.0 0.00 0.00 0.00 22 1016.1
20260902204019 80 213 3.0 8.0 0.00 0.00 0.00 21 1016.1
20260902203519 80 237 3.0 11.0 0.00 0.00 0.00 22 1016.1
20260902203019 80 281 2.0 8.0 0.00 0.00 0.00 21 1016.2
20260902202519 80 274 2.0 7.0 0.00 0.00 0.00 24 1016.4
20260902202019 80 281 2.0 8.0 0.00 0.00 0.00 26 1016.2
20260902201519 80 300 2.0 8.0 0.00 0.00 0.00 25 1016.5
20260902201019 80 250 3.0 6.0 0.00 0.00 0.00 25 1016.1
20260902200519 80 220 4.0 10.0 0.00 0.00 0.00 26 1016.2
20260902200019 80 273 4.0 11.0 0.00 0.00 0.00 25 1016.5
20260902195519 80 271 4.0 10.0 0.00 0.00 0.00 26 1016.3
20260902195020 80 279 3.0 13.0 0.00 0.00 0.00 25 1016.5
20260902194519 80 277 3.0 13.0 0.00 0.00 0.00 25 1016.4
20260902194020 80 183 3.0 7.0 0.00 0.00 0.00 27 1016.5
20260902193520 80 204 3.0 9.0 0.00 0.00 0.00 27 1016.4
20260902193020 80 237 2.0 6.0 0.00 0.00 0.00 27 1016.6
20260902192520 79 246 3.0 8.0 0.00 0.00 0.00 27 1016.6
20260902192020 79 234 3.0 8.0 0.00 0.00 0.00 26 1016.4
20260902191520 79 182 2.0 7.0 0.00 0.00 0.00 26 1016.5
20260902191020 79 247 2.0 9.0 0.00 0.00 0.00 27 1016.8
20260902190520 79 276 2.0 16.0 0.00 0.00 0.00 27 1016.7
20260902190020 78 259 2.0 6.0 0.00 0.00 0.00 30 1017.0
20260902185520 78 258 3.0 10.0 0.00 0.00 0.00 29 1016.9
20260902185020 78 246 3.0 12.0 0.00 0.00 0.00 29 1017.0
20260902184520 78 263 3.0 11.0 0.00 0.00 0.00 29 1017.0
20260902184020 78 177 2.0 6.0 0.00 0.00 0.00 30 1017.0
20260902183520 78 269 2.0 9.0 0.00 0.00 0.00 30 1017.1
20260902183020 77 275 3.0 9.0 0.00 0.00 0.00 30 1017.2
20260902182520 77 279 4.0 11.0 0.00 0.00 0.00 31 1017.4
20260902182020 77 273 4.0 17.0 0.00 0.00 0.00 30 1017.4
20260902181520 77 236 3.0 7.0 0.00 0.00 0.00 31 1017.4
20260902181020 77 239 3.0 7.0 0.00 0.00 0.00 32 1017.3
20260902180520 76 217 4.0 13.0 0.00 0.00 0.00 31 1017.5
20260902180020 76 217 3.0 12.0 0.00 0.00 0.00 31 1017.5
20260902175520 76 228 3.0 10.0 0.00 0.00 0.00 32 1017.7
20260902175020 76 254 3.0 13.0 0.00 0.00 0.00 32 1017.8
20260902174520 76 254 3.0 13.0 0.00 0.00 0.00 32 1017.7
20260902174020 76 262 3.0 7.0 0.00 0.00 0.00 34 1017.6
20260902173520 76 230 2.0 8.0 0.00 0.00 0.00 35 1017.9
20260902173020 76 193 3.0 10.0 0.00 0.00 0.00 36 1017.8
20260902172520 75 178 4.0 12.0 0.00 0.00 0.00 36 1017.8
20260902172020 75 262 4.0 12.0 0.00 0.00 0.00 37 1018.0
20260902171520 75 263 3.0 8.0 0.00 0.00 0.00 35 1018.1
20260902171020 75 236 3.0 14.0 0.00 0.00 0.00 36 1018.0
20260902170520 75 272 3.0 10.0 0.00 0.00 0.00 37 1018.0
20260902170020 74 250 3.0 14.0 0.00 0.00 0.00 36 1018.2
20260902165520 75 257 3.0 9.0 0.00 0.00 0.00 34 1018.2
20260902165020 75 252 3.0 8.0 0.00 0.00 0.00 37 1018.1
20260902164520 75 269 3.0 9.0 0.00 0.00 0.00 35 1018.1
20260902164020 75 271 3.0 14.0 0.00 0.00 0.00 36 1018.2
20260902163520 74 246 4.0 10.0 0.00 0.00 0.00 37 1018.0
20260902163020 74 262 4.0 15.0 0.00 0.00 0.00 37 1018.0
20260902162520 74 258 3.0 9.0 0.00 0.00 0.00 37 1018.2
20260902162020 73 212 2.0 9.0 0.00 0.00 0.00 38 1018.1
20260902161520 73 244 2.0 5.0 0.00 0.00 0.00 39 1018.0
20260902161020 73 250 1.0 7.0 0.00 0.00 0.00 40 1018.0
20260902160520 73 232 1.0 5.0 0.00 0.00 0.00 39 1018.0
20260902160020 72 229 1.0 7.0 0.00 0.00 0.00 41 1018.1
20260902155520 72 271 0.0 3.0 0.00 0.00 0.00 44 1017.9
20260902155020 72 271 0.0 4.0 0.00 0.00 0.00 45 1017.9
20260902154520 71 271 0.0 2.0 0.00 0.00 0.00 45 1018.0
20260902154020 71 271 1.0 5.0 0.00 0.00 0.00 44 1018.0
20260902153520 72 274 1.0 6.0 0.00 0.00 0.00 42 1018.2
20260902153020 72 276 1.0 4.0 0.00 0.00 0.00 42 1018.1
20260902152520 72 275 1.0 9.0 0.00 0.00 0.00 41 1018.2
20260902152020 71 229 1.0 8.0 0.00 0.00 0.00 42 1018.2
20260902151520 71 236 1.0 4.0 0.00 0.00 0.00 42 1018.2
20260902151020 71 231 2.0 5.0 0.00 0.00 0.00 41 1018.2
20260902150520 70 236 1.0 8.0 0.00 0.00 0.00 43 1018.2
20260902150020 70 280 1.0 7.0 0.00 0.00 0.00 44 1018.2
20260902145520 69 168 0.0 0.0 0.00 0.00 0.00 46 1018.1
20260902145020 69 168 0.0 0.0 0.00 0.00 0.00 47 1018.1
20260902144520 69 168 1.0 5.0 0.00 0.00 0.00 47 1018.1
20260902144020 69 174 1.0 8.0 0.00 0.00 0.00 47 1017.9
20260902143520 69 236 0.0 3.0 0.00 0.00 0.00 49 1017.9
20260902143020 69 227 0.0 0.0 0.00 0.00 0.00 53 1017.9
20260902142520 69 227 0.0 3.0 0.00 0.00 0.00 53 1018.0
20260902142020 69 228 0.0 5.0 0.00 0.00 0.00 53 1018.0
20260902141520 68 232 0.0 0.0 0.00 0.00 0.00 52 1017.9
20260902141020 67 232 0.0 4.0 0.00 0.00 0.00 49 1018.0
20260902140520 66 232 0.0 0.0 0.00 0.00 0.00 51 1018.0
20260902140020 65 232 0.0 0.0 0.00 0.00 0.00 53 1018.1
20260902135520 64 232 0.0 2.0 0.00 0.00 0.00 54 1018.1
20260902135020 63 232 0.0 3.0 0.00 0.00 0.00 55 1018.0
20260902134520 62 232 0.0 0.0 0.00 0.00 0.00 56 1018.0
20260902134020 62 232 0.0 0.0 0.00 0.00 0.00 56 1018.0
20260902133520 62 232 0.0 0.0 0.00 0.00 0.00 58 1018.0
20260902133020 62 232 0.0 0.0 0.00 0.00 0.00 58 1018.0
20260902132520 62 232 0.0 0.0 0.00 0.00 0.00 60 1018.1
20260902132020 62 232 0.0 0.0 0.00 0.00 0.00 59 1018.1
20260902131521 62 232 0.0 0.0 0.00 0.00 0.00 59 1018.1
20260902131020 62 232 0.0 0.0 0.00 0.00 0.00 60 1018.1
20260902130520 62 232 0.0 0.0 0.00 0.00 0.00 61 1018.0
20260902130020 62 232 0.0 0.0 0.00 0.00 0.00 62 1018.0
20260902125520 62 232 0.0 0.0 0.00 0.00 0.00 62 1017.9
20260902125020 62 232 0.0 0.0 0.00 0.00 0.00 61 1018.0
20260902124520 62 232 0.0 0.0 0.00 0.00 0.00 60 1018.0
20260902124020 62 232 0.0 0.0 0.00 0.00 0.00 58 1017.9
20260902123520 63 232 0.0 0.0 0.00 0.00 0.00 58 1017.9
20260902123020 63 232 0.0 0.0 0.00 0.00 0.00 57 1018.0
20260902122520 64 232 0.0 0.0 0.00 0.00 0.00 55 1017.8
20260902122020 64 232 0.0 0.0 0.00 0.00 0.00 54 1017.8
20260902121520 64 232 0.0 0.0 0.00 0.00 0.00 54 1017.8
20260902121020 65 232 0.0 0.0 0.00 0.00 0.00 52 1017.8
20260902120520 65 232 0.0 0.0 0.00 0.00 0.00 52 1017.8
20260902120020 65 232 0.0 0.0 0.00 0.00 0.00 52 1017.9
20260902115520 65 232 0.0 0.0 0.00 0.00 0.00 52 1017.9
20260902115020 65 232 0.0 0.0 0.00 0.00 0.00 52 1017.8
20260902114520 65 232 0.0 0.0 0.00 0.00 0.00 51 1017.8
20260902114020 66 232 0.0 0.0 0.00 0.00 0.00 51 1017.8
20260902113520 66 232 0.0 0.0 0.00 0.00 0.00 51 1017.8
20260902113020 66 232 0.0 0.0 0.00 0.00 0.00 50 1017.8
20260902112520 66 232 0.0 0.0 0.00 0.00 0.00 50 1017.7
20260902112020 66 232 0.0 0.0 0.00 0.00 0.00 50 1017.8
20260902111520 66 232 0.0 0.0 0.00 0.00 0.00 50 1017.8
20260902111020 66 232 0.0 0.0 0.00 0.00 0.00 50 1017.8
20260902110520 66 232 0.0 0.0 0.00 0.00 0.00 50 1017.8
20260902110020 66 232 0.0 0.0 0.00 0.00 0.00 49 1017.7
20260902105520 66 232 0.0 0.0 0.00 0.00 0.00 49 1017.7
20260902105020 66 232 0.0 0.0 0.00 0.00 0.00 49 1017.6
20260902104520 66 232 0.0 0.0 0.00 0.00 0.00 50 1017.7
20260902104020 66 232 0.0 0.0 0.00 0.00 0.00 50 1017.7
20260902103522 65 232 0.0 0.0 0.00 0.00 0.00 50 1017.6
20260902103020 65 232 0.0 0.0 0.00 0.00 0.00 50 1017.7
20260902102520 65 232 0.0 0.0 0.00 0.00 0.00 51 1017.7
20260902102020 65 232 0.0 0.0 0.00 0.00 0.00 51 1017.7
20260902101520 65 232 0.0 1.0 0.00 0.00 0.00 51 1017.7
20260902101020 65 232 0.0 0.0 0.00 0.00 0.00 51 1017.8
20260902100520 65 232 0.0 0.0 0.00 0.00 0.00 51 1017.8
20260902100020 65 232 0.0 0.0 0.00 0.00 0.00 51 1017.8
20260902095520 65 232 0.0 2.0 0.00 0.00 0.00 51 1017.8
20260902095020 65 232 0.0 0.0 0.00 0.00 0.00 50 1017.9
20260902094520 65 232 0.0 1.0 0.00 0.00 0.00 50 1017.9
20260902094020 65 232 0.0 0.0 0.00 0.00 0.00 50 1017.9
20260902093520 65 232 0.0 0.0 0.00 0.00 0.00 49 1017.9
20260902093021 65 232 0.0 0.0 0.00 0.00 0.00 48 1017.9
20260902092520 66 232 0.0 0.0 0.00 0.00 0.00 47 1017.9
20260902092020 66 232 0.0 0.0 0.00 0.00 0.00 46 1018.0
20260902091520 66 232 0.0 0.0 0.00 0.00 0.00 46 1018.1
20260902091020 66 232 0.0 0.0 0.00 0.00 0.00 46 1018.1
20260902090520 66 232 0.0 0.0 0.00 0.00 0.00 46 1018.2
20260902090020 66 232 0.0 2.0 0.00 0.00 0.00 46 1018.2
20260902085520 66 232 0.0 0.0 0.00 0.00 0.00 46 1018.2
20260902085020 66 232 0.0 0.0 0.00 0.00 0.00 45 1018.2
20260902084520 67 232 0.0 1.0 0.00 0.00 0.00 45 1018.2
20260902084020 67 232 0.0 0.0 0.00 0.00 0.00 45 1018.2
20260902083520 67 232 0.0 0.0 0.00 0.00 0.00 44 1018.3
20260902083020 67 232 0.0 0.0 0.00 0.00 0.00 44 1018.1
20260902082521 67 232 0.0 0.0 0.00 0.00 0.00 44 1018.3
20260902082021 67 232 0.0 0.0 0.00 0.00 0.00 44 1018.3
20260902081521 67 232 0.0 2.0 0.00 0.00 0.00 44 1018.2
20260902081021 67 232 0.0 0.0 0.00 0.00 0.00 44 1018.2
20260902080521 67 232 0.0 0.0 0.00 0.00 0.00 45 1018.2
20260902080021 67 232 0.0 0.0 0.00 0.00 0.00 45 1018.3
20260902075520 66 232 0.0 0.0 0.00 0.00 0.00 45 1018.2
20260902075021 66 232 0.0 0.0 0.00 0.00 0.00 46 1018.3
20260902074521 66 232 0.0 0.0 0.00 0.00 0.00 46 1018.3
20260902074021 66 232 0.0 0.0 0.00 0.00 0.00 46 1018.2
20260902073521 66 232 0.0 0.0 0.00 0.00 0.00 46 1018.2
20260902073021 66 232 0.0 0.0 0.00 0.00 0.00 46 1018.2
20260902072521 66 232 0.0 0.0 0.00 0.00 0.00 46 1018.2
20260902072021 67 232 0.0 0.0 0.00 0.00 0.00 46 1018.1
20260902071521 67 232 0.0 0.0 0.00 0.00 0.00 46 1018.1
20260902071021 67 232 0.0 1.0 0.00 0.00 0.00 46 1018.0
20260902070521 67 232 0.0 0.0 0.00 0.00 0.00 45 1018.1
20260902070021 67 232 0.0 0.0 0.00 0.00 0.00 45 1018.1
20260902065521 67 232 0.0 2.0 0.00 0.00 0.00 44 1018.1
20260902065021 67 232 0.0 4.0 0.00 0.00 0.00 44 1018.2
20260902064521 67 234 0.0 0.0 0.00 0.00 0.00 43 1018.2
20260902064021 67 234 0.0 0.0 0.00 0.00 0.00 43 1018.1
20260902063521 68 234 0.0 0.0 0.00 0.00 0.00 43 1018.1
20260902063021 68 234 0.0 2.0 0.00 0.00 0.00 43 1018.1
20260902062521 68 232 0.0 0.0 0.00 0.00 0.00 44 1018.1
20260902062021 68 232 0.0 0.0 0.00 0.00 0.00 44 1018.1
20260902061521 68 232 0.0 0.0 0.00 0.00 0.00 46 1018.1
20260902061021 68 232 0.0 0.0 0.00 0.00 0.00 46 1018.2
20260902060521 68 232 0.0 0.0 0.00 0.00 0.00 46 1018.2
20260902060021 68 232 0.0 0.0 0.00 0.00 0.00 46 1018.2
20260902055521 68 232 0.0 0.0 0.00 0.00 0.00 47 1018.1
20260902055021 69 232 0.0 0.0 0.00 0.00 0.00 47 1018.1
20260902054521 69 232 0.0 0.0 0.00 0.00 0.00 45 1018.1
20260902054021 69 232 0.0 0.0 0.00 0.00 0.00 44 1018.1
20260902053521 69 232 0.0 0.0 0.00 0.00 0.00 44 1018.1
20260902053021 69 232 0.0 0.0 0.00 0.00 0.00 45 1018.2
20260902052521 69 232 0.0 1.0 0.00 0.00 0.00 46 1018.1
20260902052021 69 231 0.0 3.0 0.00 0.00 0.00 46 1018.2
20260902051521 69 225 0.0 0.0 0.00 0.00 0.00 47 1018.2
20260902051021 69 225 0.0 1.0 0.00 0.00 0.00 47 1018.2
20260902050521 69 225 0.0 3.0 0.00 0.00 0.00 48 1018.2
20260902050021 69 225 0.0 4.0 0.00 0.00 0.00 48 1018.3
20260902045521 70 219 0.0 0.0 0.00 0.00 0.00 48 1018.3
20260902045021 70 219 0.0 0.0 0.00 0.00 0.00 47 1018.4
20260902044521 70 219 0.0 0.0 0.00 0.00 0.00 47 1018.5
20260902044021 70 219 0.0 0.0 0.00 0.00 0.00 47 1018.4
20260902043521 70 219 0.0 3.0 0.00 0.00 0.00 47 1018.4
20260902043021 70 218 0.0 4.0 0.00 0.00 0.00 47 1018.4
20260902042521 70 217 0.0 0.0 0.00 0.00 0.00 47 1018.3
20260902042021 71 213 0.0 2.0 0.00 0.00 0.00 47 1018.3
20260902041521 71 212 0.0 1.0 0.00 0.00 0.00 47 1018.3
20260902041021 71 213 0.0 1.0 0.00 0.00 0.00 47 1018.3
20260902040521 71 213 0.0 1.0 0.00 0.00 0.00 47 1018.3
20260902040021 71 209 0.0 5.0 0.00 0.00 0.00 47 1018.4